Regional Weather Roundup
Issued by NWS Huntsville, AL

Home | Current Version | Previous Version | Text Only | Print | Product List | Glossary On
Versions: 1 2 3 4 5 6 7 8 9 10 11 12 13 14 15 16 17 18 19 20 21 22 23 24 25 26 27 28 29 30 31 32 33 34 35 36 37 38 39 40 41 42 43 44 45 46 47 48 49 50
000
ASUS44 KHUN 060010
RWRHUN

WEATHER ROUNDUP FOR THE TENNESSEE VALLEY
NATIONAL WEATHER SERVICE HUNTSVILLE AL
700 PM CDT SUN JUL 05 2015

ALZ001>004-060100-
NORTHWEST ALABAMA

CITY           SKY/WX    TMP DP  RH WIND       PRES   REMARKS
BANKHEAD NF      N/A     80  69  70 NW1         N/A
SHOALS AIRPORT MOSUNNY   80  69  69 SW6       30.08R
6HR MIN TEMP:  81; 6HR MAX TEMP:  84;

SHOALS TVA RES   N/A     79 N/A N/A MISG        N/A
$$

ALZ005>007-016-060100-
NORTH CENTRAL ALABAMA

CITY           SKY/WX    TMP DP  RH WIND       PRES   REMARKS
DECATUR AP     PTSUNNY   80  68  66 SW6       30.06S
6HR MIN TEMP:  80; 6HR MAX TEMP:  83;

HUNTSVILLE AP  PTSUNNY   81  69  67 SW5       30.05F
6HR MIN TEMP:  81; 6HR MAX TEMP:  84;

HUN NWS/UAH      N/A     80  68  67 S3          N/A
MERIDIANVILLE  MOSUNNY   79  64  61 S5        30.05F
REDSTONE ARSN  PTSUNNY   79  71  77 SW6       30.05S
VINEMONT AP    FAIR      77  69  75 SW3       30.09R
$$

ALZ008>010-060100-
NORTHEAST ALABAMA

CITY           SKY/WX    TMP DP  RH WIND       PRES   REMARKS
ALBERTVILLE    MOSUNNY   77  73  88 SW3       30.07S
FORT PAYNE     MOSUNNY   77  64  65 CALM      30.06F
SCOTTSBORO AP  MOSUNNY   79  68  69 S3        30.05F
SCOTTSBORO HCN   N/A     79 N/A N/A MISG        N/A
VALLEY HEAD      N/A     75 N/A N/A MISG        N/A
$$

TNZ076-096-097-060100-
SOUTHEASTERN MIDDLE TENNESSEE

CITY           SKY/WX    TMP DP  RH WIND       PRES   REMARKS
TULLAHOMA      SUNNY     79  68  69 SW3       30.07F
WINCHESTER     SUNNY     79  70  73 SW3       30.06F
$$

...SURROUNDING SITES...

CITY           SKY/WX    TMP DP  RH WIND       PRES   REMARKS
ATLANTA        MOCLDY    80  64  58 SW7       30.09S
ANNISTON       PTSUNNY   82  69  64 CALM      30.06F
BIRMINGHAM     PTSUNNY   81  70  69 W6        30.08S
CHATTANOOGA    PTSUNNY   81  67  62 SW7       30.05F
CORINTH        FAIR      81  72  74 SW3       30.05R
DALTON         PTCLDY    79  70  73 CALM      30.06F
GADSDEN        MOSUNNY   90  66  45 CALM      30.04S HX  92
GOLDEN TRNGL   SUNNY     81  68  65 W5        30.07R
HALEYVILLE     FAIR      79  72  79 CALM      30.11R
JACKSON TN     PTSUNNY   82  71  69 S9        30.04R
MEMPHIS        MOSUNNY   82  70  66 S9        30.05R
NASHVILLE      PTSUNNY   82  69  64 CALM      30.04F
ROME           PTCLDY    80  67  64 SW3       30.06F
SAVANNAH       SUNNY     79  32  18 CALM      30.07R
TUPELO         MOSUNNY   79  71  76 SW7       30.07R
TUSCALOOSA     CLOUDY    78  71  79 SW10      30.08R
$$

...GULF COAST WEATHER...

CITY           SKY/WX    TMP DP  RH WIND       PRES   REMARKS
GULFPORT       HVY RAIN  71  69  93 W13G26    30.22R FOG
PASCAGOULA     LGT RAIN  69  68  96 CALM      30.14F
MOBILE         CLOUDY    69  68  96 W5        30.13F
GULF SHORES    CLOUDY    71  68  89 CALM      30.12F
PENSACOLA      CLOUDY    74  68  81 SW7       30.11F
DESTIN         MOCLDY    80  70  71 W3        30.11F
PANAMA CITY    PTCLDY    79  70  73 NW6       30.14R
APPALACHICOLA  MOCLDY    83  71  67 SW7       30.14R
$$



USA.gov is the U.S. government's official web portal to all federal, state and local government web resources and services.